Mt. Clemens, MI

1:12 AM EDT on March 25, 2017 (GMT -0400)
Selfridge Angb

Weather History for KMTC - December, 2012

Change the Weather History Date:

Saturday, December 22, 2012

  Actual Average Record
Temperature  
Mean Temperature 30 °F -  
Max Temperature 30 °F 34 °F 58 °F (1967)
Min Temperature 30 °F 19 °F -2 °F (2000)
Degree Days  
Heating Degree Days 35    
Moisture  
Dew Point 21 °F    
Average Humidity 70    
Maximum Humidity 75    
Minimum Humidity 64    
Precipitation  
Precipitation 0.00 in - - ()
Sea Level Pressure  
Sea Level Pressure 30.02 in    
Wind  
Wind Speed 14 mph (WNW)    
Max Wind Speed 20 mph    
Max Gust Speed 29 mph    
Visibility 12 miles    
Events      
Averages and records for this station are not official NWS values.
T = Trace of Precipitation, MM = Missing Value Source: NWS Daily Summary

Daily Weather History Graph

Daily Weather History Graph

Search for Another Location

Airport or City:

Trip Planner

Search our weather history database for the weather conditions in past years. The results will help you decide how hot, cold, wet, or windy it might be!

Date:

Astronomy

Dec. 22, 2012 Rise Set
Actual Time 7:58 AM EST 5:01 PM EST
Civil Twilight 7:26 AM EST 5:33 PM EST
Nautical Twilight 6:50 AM EST 6:09 PM EST
Astronomical Twilight 6:16 AM EST 6:43 PM EST
Moon 1:22 PM EST (12/22) 2:38 AM EST (12/22)
Length of Visible Light 10h 07m
Length of Day
9h 02m
Waxing Gibbous, 73% of the Moon is Illuminated
Dec 22
Waxing Gibbous
Dec 28
Full
Jan 4
Last Quarter
Jan 11
New
Jan 18
First Quarter

Hourly Weather History & Observations

Time (EST) Temp. Windchill Dew Point Humidity Pressure Visibility Wind Dir Wind Speed Gust Speed Precip Events Conditions
4:09 AM 30.2 °F 19.3 °F 21.2 °F 69% 29.88 in 12.0 mi NW 15.0 mph 26.5 mph N/A   Mostly Cloudy
4:59 AM 30.2 °F 19.3 °F 21.2 °F 69% 29.94 in 12.0 mi NW 15.0 mph 28.8 mph N/A   Mostly Cloudy
5:59 AM 30.2 °F 18.1 °F 21.2 °F 69% 29.96 in 12.0 mi NW 18.4 mph 25.3 mph N/A   Mostly Cloudy
6:59 AM 30.2 °F 17.8 °F 21.2 °F 69% 29.99 in 12.0 mi WNW 19.6 mph 28.8 mph N/A   Mostly Cloudy
7:35 AM 30.2 °F 17.8 °F 21.2 °F 69% 29.95 in 12.0 mi NW 19.6 mph 26.5 mph N/A   Mostly Cloudy
7:59 AM 30.2 °F 18.1 °F 21.2 °F 69% 30.02 in 12.0 mi WNW 18.4 mph - N/A   Overcast
8:25 AM 30.2 °F 19.3 °F 21.2 °F 69% 29.97 in 12.0 mi WNW 15.0 mph 25.3 mph N/A   Mostly Cloudy
8:59 AM 30.2 °F 19.8 °F 19.4 °F 64% 30.04 in 12.0 mi NW 13.8 mph - N/A   Mostly Cloudy
9:59 AM 30.2 °F 19.3 °F 19.4 °F 64% 30.06 in 12.0 mi WNW 15.0 mph 21.9 mph N/A   Mostly Cloudy
10:46 AM 30.2 °F 21.3 °F 21.2 °F 69% 30.02 in 12.0 mi NW 10.4 mph - N/A   Mostly Cloudy
10:55 AM 30.2 °F 19.3 °F 21.2 °F 69% 30.07 in 12.0 mi WNW 15.0 mph 20.7 mph N/A   Mostly Cloudy
11:55 AM 30.2 °F 20.8 °F 21.2 °F 69% 30.05 in 12.0 mi WNW 11.5 mph 19.6 mph N/A   Mostly Cloudy
12:55 PM 30.2 °F 19.3 °F 21.2 °F 69% 30.05 in 12.0 mi WNW 15.0 mph - N/A   Mostly Cloudy
1:55 PM 30.2 °F 20.2 °F 21.2 °F 69% 30.05 in 12.0 mi WNW 12.7 mph - N/A   Overcast
2:55 PM 30.2 °F 20.8 °F 21.2 °F 69% 30.04 in 12.0 mi WNW 11.5 mph - N/A   Mostly Cloudy
3:30 PM 30.2 °F 19.8 °F 21.2 °F 69% 29.99 in 12.0 mi WNW 13.8 mph - N/A   Mostly Cloudy
3:55 PM 30.2 °F 21.9 °F 21.2 °F 69% 30.04 in 12.0 mi West 9.2 mph - N/A   Mostly Cloudy
4:55 PM 30.2 °F 22.6 °F 21.2 °F 69% 30.04 in 12.0 mi West 8.1 mph - N/A   Mostly Cloudy
5:55 PM 30.2 °F 24.3 °F 21.2 °F 69% 30.05 in 12.0 mi WSW 5.8 mph - N/A   Mostly Cloudy
6:55 PM 30.2 °F 24.3 °F 21.2 °F 69% 30.04 in 12.0 mi West 5.8 mph - N/A   Overcast
7:55 PM 30.2 °F 25.4 °F 23.0 °F 75% 30.04 in 12.0 mi SW 4.6 mph - N/A   Overcast
8:55 PM 30.2 °F 24.3 °F 23.0 °F 75% 30.04 in 12.0 mi SW 5.8 mph - N/A   Mostly Cloudy
9:55 PM 30.2 °F 23.4 °F 23.0 °F 75% 30.03 in 12.0 mi SW 6.9 mph - N/A   Mostly Cloudy
10:55 PM 30.2 °F 21.9 °F 23.0 °F 75% 30.02 in 12.0 mi WSW 9.2 mph - N/A   Overcast